Theta_e
333 333 334 333 334 335 337 339 340 342 339 339 341 346 346 343 344 344 344 342 342 341 341 343 341 340 339 335 335 332 332 327 328 328 327 328 328 330 328 327 328 328 327 326
333 334 333 332 333 336 335 338 337 336 336 339 345 344 343 343 344 345 343 343 342 341 341 341 342 342 340 336 337 335 334 329 330 327 330 325 326 325 327 326 327 328 328 327
334 334 332 332 332 337 337 338 333 338 341 342 344 346 344 342 343 342 343 343 339 339 338 338 337 342 341 338 337 336 335 330 331 330 330 328 328 325 329 329 329 330 329 327
334 334 333 332 332 335 335 335 337 337 344 353 344 348 346 346 345 343 341 340 339 339 339 339 341 343 343 339 337 336 336 334 332 332 332 331 329 327 327 327 329 327 327 328
332 332 334 334 332 332 333 337 338 339 342 348 344 346 343 346 344 342 343 342 340 339 339 341 344 346 343 339 338 337 338 338 336 334 335 333 329 331 329 328 329 328 326 327
330 332 332 333 332 332 335 335 339 342 343 352 344 341 347 346 345 341 343 342 340 338 338 341 343 347 344 342 341 338 340 341 338 336 336 335 333 332 331 331 328 327 327 327
330 330 330 331 330 332 335 338 346 338 339 342 337 343 345 341 343 341 344 342 340 338 338 338 341 343 345 343 341 338 341 341 339 338 338 336 334 334 333 332 331 325 326 327
331 332 333 333 331 332 332 340 341 341 343 345 340 345 340 339 339 338 343 343 341 338 338 339 340 343 343 342 340 340 342 342 341 339 338 337 335 333 332 332 332 329 325 326
331 332 333 332 332 333 333 336 338 342 344 341 341 341 340 339 339 341 343 343 341 338 337 338 340 340 343 342 341 341 340 341 341 339 338 338 336 334 333 333 333 332 330 329
330 333 333 331 332 332 332 337 340 341 353 343 340 346 345 344 342 340 343 341 339 336 336 338 341 341 342 343 342 341 340 341 340 339 339 339 338 336 334 333 334 333 332 331
329 338 334 333 338 340 333 341 346 344 344 343 339 346 340 341 344 342 340 341 338 336 336 338 338 339 341 342 342 340 340 339 340 340 339 340 338 337 335 334 334 332 332 332
331 334 337 337 337 336 337 333 345 341 344 338 339 347 339 343 342 343 341 341 339 336 335 335 338 338 340 340 342 342 340 339 339 339 340 339 338 337 336 334 332 331 331 331
339 335 338 346 340 339 339 339 334 336 345 348 341 343 340 343 344 341 342 340 337 337 336 335 336 337 338 339 342 342 343 341 339 339 338 337 337 337 332 330 330 331 331 330
338 342 346 342 340 338 342 331 332 334 337 337 339 341 344 342 341 341 340 339 338 336 338 337 337 336 337 338 340 341 341 339 339 339 337 337 335 330 329 330 330 331 332 332
346 342 337 334 334 332 331 332 333 333 333 336 336 342 341 340 339 338 340 341 339 337 337 338 338 337 339 338 340 340 340 339 337 336 334 334 331 329 329 331 332 333 333 330
341 343 340 339 338 337 333 337 336 333 334 337 339 340 339 338 338 339 337 339 337 339 337 336 337 339 337 338 339 339 339 338 336 334 332 330 329 330 331 330 333 332 329 326
341 344 346 339 339 342 342 341 338 332 334 336 339 340 340 340 340 341 341 340 341 341 341 340 339 338 339 338 337 337 337 336 334 332 332 329 328 327 329 331 330 327 326 325
340 351 344 341 346 349 343 339 339 334 334 336 340 343 342 342 341 341 342 342 342 340 339 341 340 339 339 339 337 336 335 334 333 333 330 329 327 327 328 328 325 324 325 323
339 345 341 337 337 339 345 344 341 340 345 347 346 345 342 341 339 341 339 339 340 341 341 340 339 339 340 338 336 334 334 333 332 331 331 328 325 324 324 322 323 323 323 322
338 339 337 338 338 341 347 342 339 336 343 346 344 343 342 340 340 339 342 338 341 340 339 339 340 340 339 338 335 334 334 333 333 332 331 325 321 320 320 322 322 322 321 321
342 339 338 338 339 347 343 341 340 339 358 344 342 341 341 341 342 344 341 341 338 339 339 339 340 339 338 339 336 336 335 334 331 329 324 319 321 320 320 321 321 321 320 320
336 337 338 342 343 345 345 344 350 351 349 342 341 341 339 340 339 339 338 340 339 339 338 339 341 341 338 337 336 337 334 330 328 324 319 319 320 319 321 320 320 320 320 319
338 341 350 347 346 347 345 344 345 342 341 340 339 338 337 339 338 338 340 339 339 337 339 339 342 340 339 338 336 336 332 327 325 321 319 319 319 318 318 320 321 321 320 319
343 341 341 337 339 338 337 337 340 340 340 338 337 339 339 338 338 338 339 340 339 338 339 339 340 341 338 335 331 328 326 324 319 318 319 319 318 318 319 318 320 319 318 317
344 342 344 342 339 340 341 343 342 340 337 337 338 338 336 338 337 337 339 341 339 338 338 339 339 337 336 332 329 326 327 322 316 317 319 318 318 319 316 320 319 318 317 316
337 340 339 341 340 343 344 339 339 338 338 338 339 337 337 337 338 337 340 340 339 337 338 338 337 336 331 328 326 324 321 318 317 319 319 319 318 318 320 320 320 318 317 313
Wind_Speed
19 9 9 10 7 10 15 2 12 16 11 11 15 20 25 5 13 8 7 6 6 0 2 13 19 19 27 28 23 18 13 10 9 7 7 6 9 9 5 6 6 4 4 4
13 11 7 12 14 7 10 17 7 11 12 4 24 18 13 14 21 7 9 4 7 9 8 5 6 21 31 29 23 19 13 11 9 8 4 3 4 2 4 2 5 4 4 4
13 10 6 11 11 4 4 13 14 21 20 29 11 10 13 18 17 30 10 7 12 10 12 11 12 8 29 28 24 19 14 11 10 8 5 3 4 7 7 8 6 5 3 3
15 12 6 12 12 9 14 10 16 16 11 4 19 2 5 13 16 24 13 12 9 11 12 11 13 11 26 26 23 18 14 12 10 9 7 5 5 4 6 3 2 4 3 4
19 17 12 13 10 11 14 22 15 16 2 2 13 6 4 7 12 20 15 12 9 12 11 12 12 19 24 24 20 16 15 13 11 10 7 5 4 3 1 1 3 7 7 7
20 24 15 11 14 12 8 14 15 6 2 3 16 8 3 7 7 8 16 12 7 11 11 12 10 11 15 16 14 15 17 15 11 11 8 5 4 2 3 4 4 7 3 7
17 19 22 18 16 10 3 5 7 5 5 4 15 15 9 10 22 9 15 10 9 10 10 8 9 8 9 11 13 14 16 14 12 12 9 8 6 4 4 3 6 6 6 2
15 18 12 18 14 8 14 6 3 6 11 14 10 8 6 3 14 31 15 11 8 9 8 8 8 10 11 11 12 13 14 12 12 12 11 10 7 8 7 10 3 6 4 6
12 19 19 4 6 6 7 9 3 8 17 4 8 10 5 7 12 10 11 11 7 5 7 8 12 9 10 10 11 10 15 14 15 13 13 10 9 9 7 3 3 9 3 7
11 13 15 6 4 10 12 7 10 6 6 13 7 16 10 10 10 10 11 11 8 4 10 6 12 7 3 8 11 10 14 16 13 19 18 14 12 10 7 6 9 10 10 9
6 6 15 10 13 22 9 6 5 2 4 4 8 5 11 8 8 10 9 8 11 9 10 9 11 8 1 6 15 13 9 10 9 15 19 16 17 11 9 9 10 10 10 10
7 2 8 10 22 19 9 3 11 3 3 10 9 3 10 12 22 8 11 10 6 5 8 8 10 5 4 1 10 12 10 7 6 2 7 13 14 9 5 6 9 10 11 11
2 3 4 9 15 13 4 12 4 2 4 8 5 4 6 0 10 14 11 9 8 3 7 5 4 2 8 2 4 5 9 13 9 9 8 4 9 3 2 6 7 8 10 12
1 4 9 7 9 6 12 4 3 3 4 9 9 12 13 15 12 9 7 7 10 9 10 8 4 5 10 3 5 6 5 8 9 13 9 13 3 1 3 6 7 10 7 7
2 5 12 9 7 9 10 4 6 4 3 5 9 15 13 12 14 14 14 6 7 7 9 5 2 2 8 7 5 6 7 6 5 3 2 5 4 7 11 5 4 3 6 6
3 6 12 10 16 16 9 13 15 5 7 13 13 7 12 14 14 15 14 5 11 7 11 5 2 5 6 8 9 9 7 5 4 4 7 4 9 7 2 2 1 2 2 3
1 6 8 8 16 26 11 5 15 9 12 10 8 11 14 13 15 16 16 12 13 13 14 14 3 4 6 7 6 6 6 5 4 6 11 4 2 8 3 3 3 4 1 1
5 7 5 8 5 10 6 13 20 2 8 13 12 14 14 15 15 11 14 13 11 11 11 11 13 5 7 5 8 10 9 7 7 8 9 5 5 6 5 2 1 1 2 3
2 6 6 6 10 5 9 16 3 5 11 13 11 12 14 15 15 8 14 14 13 10 11 19 11 2 10 8 9 8 9 8 8 10 5 7 6 6 4 0 1 3 3 4
6 3 6 9 11 14 7 7 6 4 4 10 11 11 13 14 11 11 15 15 14 17 13 12 2 5 6 4 7 9 7 10 5 9 6 6 4 4 2 0 2 3 6 7
7 5 9 10 10 4 7 5 5 5 4 8 10 11 11 10 9 8 11 11 13 17 19 11 9 9 7 4 11 8 9 7 17 10 6 4 1 2 3 3 4 5 6 7
3 5 8 9 11 2 11 8 7 4 5 8 10 9 10 10 11 11 12 14 12 16 18 17 4 2 9 7 7 8 21 13 12 7 10 4 2 6 4 4 5 7 7 9
4 3 4 6 4 5 7 7 8 4 5 9 6 7 10 11 13 13 12 14 9 14 13 18 9 10 7 5 10 12 10 12 8 8 11 10 7 7 6 5 9 10 13 14
10 6 3 4 8 8 8 4 7 7 5 6 6 7 9 10 12 12 10 11 10 13 9 10 6 5 6 8 12 14 11 13 12 10 11 11 11 11 8 11 13 14 13 9
6 1 4 4 6 7 9 10 7 5 6 4 6 9 11 11 12 13 10 10 12 14 10 7 6 8 7 6 5 2 2 2 5 13 12 10 12 16 13 15 14 13 10 7
6 6 4 4 6 3 5 6 2 4 6 6 8 9 10 14 12 13 9 13 13 14 12 6 7 6 8 0 4 6 5 6 10 12 9 13 16 17 17 14 15 18 21 20
Wind_Direction
285 286 23 348 344 340 1 151 229 235 266 330 78 59 349 88 118 139 180 118 94 55 131 189 192 179 154 153 157 170 178 186 173 182 171 208 237 236 221 233 220 244 273 309
263 313 32 326 317 32 16 325 230 332 342 249 82 109 205 8 3 76 76 105 61 65 57 29 209 171 153 151 155 163 176 189 185 194 214 278 341 311 272 245 229 228 245 276
292 258 45 307 317 224 42 310 342 348 38 7 22 65 20 18 4 300 152 119 66 66 48 25 7 171 145 150 155 164 175 190 189 207 202 243 240 246 242 227 241 208 207 299
297 297 275 284 321 336 323 347 28 351 41 120 252 235 51 116 221 272 89 66 51 68 59 36 7 340 141 145 152 164 177 186 194 209 219 251 291 317 15 7 27 338 266 259
300 301 310 299 318 0 313 353 1 304 79 54 295 124 217 245 220 265 100 82 44 66 70 57 32 76 132 143 155 170 176 189 198 220 221 232 259 319 150 30 339 279 238 238
307 300 287 289 300 319 344 335 310 26 190 7 270 36 339 246 233 106 96 84 51 68 65 93 74 103 133 149 159 175 180 185 193 206 224 242 285 314 348 1 307 333 244 247
273 287 295 272 271 268 295 333 341 314 300 52 357 80 68 352 19 7 96 83 65 48 72 62 86 100 131 144 156 177 176 182 196 203 211 221 234 245 256 278 329 334 317 49
281 294 261 262 242 272 295 115 218 302 318 299 19 88 20 49 113 255 102 93 64 51 61 78 64 136 151 152 166 188 172 194 195 203 216 219 223 236 248 235 315 315 339 337
275 283 325 219 351 325 310 312 222 303 272 310 110 117 26 56 287 114 89 86 64 65 70 78 89 48 104 153 176 195 180 207 192 202 213 218 224 249 281 326 298 296 303 318
292 295 302 65 4 282 263 43 20 360 37 297 356 52 12 345 64 32 88 71 58 34 76 58 95 90 144 160 170 195 204 202 207 202 197 204 213 230 244 260 262 274 288 285
261 261 290 307 5 339 296 89 96 78 256 254 304 117 340 345 335 32 11 65 51 14 40 77 73 85 42 202 172 193 215 193 212 232 189 196 201 211 229 251 270 282 283 280
232 293 296 16 349 347 336 276 168 279 352 323 312 29 269 94 271 68 24 58 84 33 47 22 105 116 107 290 163 173 177 193 256 160 197 207 192 215 230 272 287 293 288 284
32 232 255 2 351 336 326 279 358 309 243 261 303 53 217 285 15 25 36 34 85 51 71 73 45 65 101 157 213 216 193 208 216 213 207 270 214 197 269 278 282 284 281 278
34 279 279 195 198 204 254 271 155 119 276 323 27 36 30 16 15 29 4 352 34 322 77 341 359 95 117 162 203 211 197 250 212 210 198 191 172 219 242 246 251 255 284 322
275 281 307 318 295 236 297 309 332 336 307 348 340 52 13 16 4 9 19 41 333 14 172 191 33 17 145 160 192 203 196 211 263 244 238 184 180 237 244 237 299 276 302 318
196 290 304 297 335 322 261 15 344 247 16 6 8 19 32 16 2 6 334 356 10 32 352 324 180 172 150 164 204 186 204 191 237 221 263 195 242 235 213 277 79 261 4 335
248 310 329 326 54 330 304 13 322 3 14 349 343 10 20 3 7 351 345 20 21 0 351 344 242 203 158 161 154 187 179 194 204 230 250 246 286 272 183 144 95 21 358 281
298 314 308 292 223 255 131 209 217 357 30 6 19 16 7 359 357 22 23 18 357 338 339 330 333 136 147 188 196 178 163 186 215 243 276 350 346 333 329 12 55 231 230 268
191 308 311 297 287 121 101 264 211 70 58 41 20 4 358 355 333 92 17 357 343 0 340 322 328 147 153 204 157 168 190 195 230 244 7 344 337 328 317 131 160 252 241 234
234 236 265 297 300 300 99 93 19 304 82 19 13 2 358 347 341 348 346 339 346 337 329 324 26 163 172 195 164 214 202 228 211 48 22 344 332 331 337 18 251 244 246 251
197 230 251 259 256 93 45 15 304 302 51 352 11 10 356 347 345 328 340 347 340 332 320 302 268 189 200 299 115 345 253 62 64 34 340 319 330 273 255 241 242 231 256 277
306 272 262 262 264 214 7 46 37 31 357 11 23 3 342 341 333 344 341 327 11 351 336 327 102 142 95 121 124 237 44 67 76 43 314 312 277 278 195 218 235 253 257 276
241 302 327 329 2 127 135 86 91 65 14 21 339 349 334 339 341 336 337 327 14 335 359 334 109 101 67 45 25 73 58 54 51 22 315 304 291 277 260 244 250 258 261 253
201 165 261 320 27 350 349 86 93 65 29 318 345 346 335 340 341 329 335 339 348 355 6 5 8 120 101 51 58 68 57 31 13 323 282 277 282 283 265 273 269 242 273 279
91 53 224 264 303 319 49 65 56 5 312 358 349 351 338 339 335 336 345 351 2 346 11 2 20 63 77 102 65 27 316 270 254 273 276 287 274 263 256 251 262 280 286 270
356 31 347 15 22 355 19 20 11 332 340 357 14 319 346 345 344 355 358 18 13 351 357 13 11 22 82 359 262 270 304 287 274 276 281 275 264 276 252 253 257 254 261 254